User: anonymous   Login
Location: Unspecified
(0.0000°N, 0.0000°E)
Time: 08:59:20
(UTC+00:00)
Language:

STARLINK-35456 - Orbit

View from above orbital plane
View from above orbital plane
View from above satellite
View from above satellite

Ground track
Ground track

The orbit is defined by the following mean orbital elements,

1 65867U          26145.41143505 +.00000000 +00000-0 +83933-3 0 00005
2 65867  53.1595 297.6967 0002001  85.7971 274.3258 15.30225881    04
Epoch (UTC): 25 May 2026 09:52:27
Eccentricity: 0.0002001
inclination: 53.1595°
perigee height: 474 km
apogee height: 477 km
right ascension of ascending node: 297.6967°
argument of perigee: 85.7971°
revolutions per day: 15.30225881
mean anomaly at epoch: 274.3258°

The dashed part of the orbit path shows where the satellite is in the earth's shadow,  

DLR